Time,TemperatureF,DewpointF,PressureIn,WindDirection,WindDirectionDegrees,WindSpeedMPH,WindSpeedGustMPH,Humidity,HourlyPrecipIn,Conditions,Clouds,dailyrainin,SoftwareType,DateUTC
2013-02-20 00:00:00,19.5,13.2,27.11,NW,311,10.0,24.0,76,0.00,,,-99.99,Weather View 32 v60,2013-02-20 05:00:00,
2013-02-20 00:20:00,19.1,13.7,27.12,WNW,293,18.0,24.0,79,0.00,,,-99.99,Weather View 32 v60,2013-02-20 05:20:00,
2013-02-20 00:40:00,19.1,12.8,27.12,WNW,294,10.0,22.0,76,0.00,,,-99.99,Weather View 32 v60,2013-02-20 05:40:00,
2013-02-20 01:00:00,18.2,12.8,27.12,NW,304,11.0,22.0,79,0.00,,,-99.99,Weather View 32 v60,2013-02-20 06:00:00,
2013-02-20 01:20:00,18.0,10.8,27.12,NNW,338,7.0,20.0,73,0.00,,,-99.99,Weather View 32 v60,2013-02-20 06:20:00,
2013-02-20 01:40:00,18.0,10.5,27.11,West,272,5.0,20.0,72,0.00,,,-99.99,Weather View 32 v60,2013-02-20 06:40:00,
2013-02-20 02:00:00,17.7,11.7,27.11,NW,309,6.0,21.0,77,0.00,,,-99.99,Weather View 32 v60,2013-02-20 07:00:00,
2013-02-20 02:20:00,17.0,12.2,27.11,WNW,299,8.0,21.0,81,0.00,,,-99.99,Weather View 32 v60,2013-02-20 07:20:00,
2013-02-20 02:40:00,16.7,10.5,27.11,NW,309,14.0,23.0,76,0.00,,,-99.99,Weather View 32 v60,2013-02-20 07:40:00,
2013-02-20 03:00:00,16.6,9.8,27.10,WNW,296,5.0,23.0,74,0.00,,,-99.99,Weather View 32 v60,2013-02-20 08:00:00,
2013-02-20 03:20:00,16.5,10.6,27.11,NW,309,11.0,23.0,77,0.00,,,-99.99,Weather View 32 v60,2013-02-20 08:20:00,
2013-02-20 03:40:00,16.0,10.1,27.12,West,272,10.0,25.0,77,0.00,,,-99.99,Weather View 32 v60,2013-02-20 08:40:00,
2013-02-20 04:00:00,15.7,8.6,27.14,NW,317,12.0,28.0,73,0.00,,,-99.99,Weather View 32 v60,2013-02-20 09:00:00,
2013-02-20 04:20:00,15.6,7.9,27.14,NW,318,9.0,28.0,71,0.00,,,-99.99,Weather View 32 v60,2013-02-20 09:20:00,
2013-02-20 04:40:00,15.6,8.5,27.14,NW,306,10.0,28.0,73,0.00,,,-99.99,Weather View 32 v60,2013-02-20 09:40:00,
2013-02-20 05:00:00,15.4,9.8,27.13,WNW,301,10.0,24.0,78,0.00,,,-99.99,Weather View 32 v60,2013-02-20 10:00:00,
2013-02-20 05:20:00,15.5,9.0,27.14,WNW,303,16.0,24.0,75,0.00,,,-99.99,Weather View 32 v60,2013-02-20 10:20:00,
2013-02-20 05:40:00,15.6,9.1,27.15,WNW,301,12.0,24.0,75,0.00,,,-99.99,Weather View 32 v60,2013-02-20 10:40:00,
2013-02-20 06:00:00,15.4,9.5,27.15,WNW,298,11.0,24.0,77,0.00,,,-99.99,Weather View 32 v60,2013-02-20 11:00:00,
2013-02-20 06:20:00,15.2,9.3,27.14,NW,314,13.0,24.0,77,0.00,,,-99.99,Weather View 32 v60,2013-02-20 11:20:00,
2013-02-20 06:40:00,15.1,10.3,27.15,WNW,299,8.0,26.0,81,0.00,,,-99.99,Weather View 32 v60,2013-02-20 11:40:00,
2013-02-20 07:00:00,15.2,10.7,27.16,NW,306,6.0,26.0,82,0.00,,,-99.99,Weather View 32 v60,2013-02-20 12:00:00,
2013-02-20 07:20:00,15.4,10.6,27.17,WNW,295,15.0,26.0,81,0.00,,,-99.99,Weather View 32 v60,2013-02-20 12:20:00,
2013-02-20 07:40:00,15.9,11.1,27.17,WNW,295,16.0,25.0,81,0.00,,,-99.99,Weather View 32 v60,2013-02-20 12:40:00,
2013-02-20 08:00:00,15.8,10.4,27.17,NW,310,12.0,25.0,79,0.00,,,-99.99,Weather View 32 v60,2013-02-20 13:00:00,
2013-02-20 08:20:00,16.4,10.5,27.17,WNW,301,9.0,25.0,77,0.00,,,-99.99,Weather View 32 v60,2013-02-20 13:20:00,
2013-02-20 08:40:00,17.6,11.0,27.17,NW,324,9.0,25.0,75,0.00,,,-99.99,Weather View 32 v60,2013-02-20 13:40:00,
2013-02-20 09:00:00,18.4,10.3,27.17,WNW,303,9.0,28.0,70,0.00,,,-99.99,Weather View 32 v60,2013-02-20 14:00:00,
2013-02-20 09:20:00,19.5,11.0,27.18,NW,321,11.0,28.0,69,0.00,,,-99.99,Weather View 32 v60,2013-02-20 14:20:00,
2013-02-20 09:40:00,18.8,11.0,27.18,WNW,289,7.0,28.0,71,0.00,,,-99.99,Weather View 32 v60,2013-02-20 14:40:00,
2013-02-20 10:00:00,20.7,12.5,27.18,NW,305,14.0,27.0,70,0.00,,,-99.99,Weather View 32 v60,2013-02-20 15:00:00,
2013-02-20 10:20:00,19.8,12.6,27.18,NW,305,16.0,33.0,73,0.00,,,-99.99,Weather View 32 v60,2013-02-20 15:20:00,
2013-02-20 10:40:00,20.1,11.6,27.18,NW,304,22.0,33.0,69,0.00,,,-99.99,Weather View 32 v60,2013-02-20 15:40:00,
2013-02-20 11:00:00,21.7,11.0,27.17,NW,312,19.0,33.0,63,0.00,,,-99.99,Weather View 32 v60,2013-02-20 16:00:00,
2013-02-20 11:20:00,20.9,11.7,27.17,NW,308,9.0,39.0,67,0.00,,,-99.99,Weather View 32 v60,2013-02-20 16:20:00,
2013-02-20 11:40:00,20.1,10.9,27.17,WNW,291,13.0,39.0,67,0.00,,,-99.99,Weather View 32 v60,2013-02-20 16:40:00,
2013-02-20 12:00:00,19.7,9.5,27.17,WNW,293,19.0,39.0,64,0.00,,,-99.99,Weather View 32 v60,2013-02-20 17:00:00,
2013-02-20 12:20:00,19.3,10.1,27.18,WNW,300,17.0,35.0,67,0.00,,,-99.99,Weather View 32 v60,2013-02-20 17:20:00,
2013-02-20 12:40:00,19.8,11.6,27.18,WNW,296,6.0,32.0,70,0.00,,,-99.99,Weather View 32 v60,2013-02-20 17:40:00,
2013-02-20 13:00:00,18.7,12.1,27.18,NW,308,19.0,32.0,75,0.00,,,-99.99,Weather View 32 v60,2013-02-20 18:00:00,
2013-02-20 13:20:00,20.0,12.1,27.18,NW,308,12.0,27.0,71,0.00,,,-99.99,Weather View 32 v60,2013-02-20 18:20:00,
2013-02-20 13:40:00,19.1,11.6,27.19,NW,305,9.0,27.0,72,0.00,,,-99.99,Weather View 32 v60,2013-02-20 18:40:00,
2013-02-20 14:00:00,18.4,10.3,27.20,NW,318,15.0,27.0,70,0.00,,,-99.99,Weather View 32 v60,2013-02-20 19:00:00,
2013-02-20 14:20:00,17.6,9.8,27.20,NW,313,14.0,27.0,71,0.00,,,-99.99,Weather View 32 v60,2013-02-20 19:20:00,
2013-02-20 14:40:00,17.4,9.9,27.22,NW,312,11.0,27.0,72,0.00,,,-99.99,Weather View 32 v60,2013-02-20 19:40:00,
2013-02-20 15:00:00,17.1,10.8,27.23,NNW,327,10.0,27.0,76,0.00,,,-99.99,Weather View 32 v60,2013-02-20 20:00:00,
2013-02-20 15:20:00,16.1,10.2,27.24,NW,325,13.0,27.0,77,0.00,,,-99.99,Weather View 32 v60,2013-02-20 20:20:00,
2013-02-20 15:40:00,16.0,9.2,27.25,NNW,338,11.0,24.0,74,0.00,,,-99.99,Weather View 32 v60,2013-02-20 20:40:00,
2013-02-20 16:00:00,15.4,8.6,27.26,NW,309,5.0,23.0,74,0.00,,,-99.99,Weather View 32 v60,2013-02-20 21:00:00,
2013-02-20 16:20:00,14.8,6.5,27.27,NNW,333,18.0,23.0,69,0.00,,,-99.99,Weather View 32 v60,2013-02-20 21:20:00,
2013-02-20 16:40:00,14.4,5.8,27.27,NW,318,12.0,25.0,68,0.00,,,-99.99,Weather View 32 v60,2013-02-20 21:40:00,
2013-02-20 17:00:00,13.9,5.9,27.28,NW,322,10.0,25.0,70,0.00,,,-99.99,Weather View 32 v60,2013-02-20 22:00:00,
2013-02-20 17:20:00,13.5,4.9,27.29,NW,325,5.0,27.0,68,0.00,,,-99.99,Weather View 32 v60,2013-02-20 22:20:00,
2013-02-20 17:40:00,13.6,4.7,27.30,NNW,332,12.0,27.0,67,0.00,,,-99.99,Weather View 32 v60,2013-02-20 22:40:00,
2013-02-20 18:00:00,13.5,4.6,27.30,NW,325,13.0,27.0,67,0.00,,,-99.99,Weather View 32 v60,2013-02-20 23:00:00,
2013-02-20 18:20:00,12.6,3.7,27.29,NW,324,14.0,22.0,67,0.00,,,-99.99,Weather View 32 v60,2013-02-20 23:20:00,
2013-02-20 18:40:00,12.2,3.0,27.30,NNW,332,7.0,22.0,66,0.00,,,-99.99,Weather View 32 v60,2013-02-20 23:40:00,
2013-02-20 19:00:00,12.1,2.6,27.30,NNW,339,7.0,22.0,65,0.00,,,-99.99,Weather View 32 v60,2013-02-21 00:00:00,
2013-02-20 19:20:00,11.9,2.4,27.29,NW,322,7.0,22.0,65,0.00,,,-99.99,Weather View 32 v60,2013-02-21 00:20:00,
2013-02-20 19:40:00,12.0,3.2,27.29,NW,318,4.0,22.0,67,0.00,,,-99.99,Weather View 32 v60,2013-02-21 00:40:00,
2013-02-20 20:00:00,12.4,2.9,27.30,WNW,293,8.0,20.0,65,0.00,,,-99.99,Weather View 32 v60,2013-02-21 01:00:00,
2013-02-20 20:20:00,12.8,3.6,27.31,NW,313,7.0,20.0,66,0.00,,,-99.99,Weather View 32 v60,2013-02-21 01:20:00,
2013-02-20 20:40:00,12.9,3.0,27.31,NW,313,11.0,20.0,64,0.00,,,-99.99,Weather View 32 v60,2013-02-21 01:40:00,
2013-02-20 21:00:00,12.9,3.7,27.32,NW,323,12.0,20.0,66,0.00,,,-99.99,Weather View 32 v60,2013-02-21 02:00:00,
2013-02-20 21:20:00,13.0,4.4,27.32,WNW,290,5.0,19.0,68,0.00,,,-99.99,Weather View 32 v60,2013-02-21 02:20:00,
2013-02-20 21:40:00,13.0,4.4,27.32,NW,324,5.0,18.0,68,0.00,,,-99.99,Weather View 32 v60,2013-02-21 02:40:00,
2013-02-20 22:00:00,13.0,5.1,27.31,NW,311,9.0,18.0,70,0.00,,,-99.99,Weather View 32 v60,2013-02-21 03:00:00,
2013-02-20 22:20:00,12.9,5.0,27.30,NNW,345,10.0,21.0,70,0.00,,,-99.99,Weather View 32 v60,2013-02-21 03:20:00,
2013-02-20 22:40:00,12.8,5.2,27.29,NW,306,10.0,21.0,71,0.00,,,-99.99,Weather View 32 v60,2013-02-21 03:40:00,
2013-02-20 23:00:00,12.8,5.5,27.29,NW,313,7.0,21.0,72,0.00,,,-99.99,Weather View 32 v60,2013-02-21 04:00:00,
2013-02-20 23:20:00,12.8,5.5,27.29,NW,318,3.0,21.0,72,0.00,,,-99.99,Weather View 32 v60,2013-02-21 04:20:00,
2013-02-20 23:40:00,12.8,5.8,27.28,NNW,331,1.0,21.0,73,0.00,,,-99.99,Weather View 32 v60,2013-02-21 04:40:00,